Regional Weather Roundup
Issued by NWS

Home | Current Version | Previous Version | Graphics & Text | Print | Product List | Glossary On
Versions: 1 2 3 4 5 6 7 8 9 10 11 12 13 14 15 16 17 18 19 20 21 22 23 24 25 26 27 28 29 30 31 32 33 34 35 36 37 38 39 40 41 42 43 44 45 46 47 48 49 50
000
ASUS43 KLSX 290007
RWRMO

WEATHER SUMMARY FOR MISSOURI
NATIONAL WEATHER SERVICE SPRINGFIELD MO
600 PM CST FRI NOV 28 2014

NOTE: "FAIR" INDICATES FEW OR NO CLOUDS BELOW 12,000 FEET WITH NO
       SIGNIFICANT WEATHER AND/OR OBSTRUCTIONS TO VISIBILITY.
       CURRENT SKY AND/OR WEATHER CONDITIONS ARE NOT AVAILABLE FOR
       CHILLICOTHE AND FARMINGTON.

MOZ001>031-035>038-043-044-053-054-290100-
...NORTHERN AND WESTERN MISSOURI...

CITY           SKY/WX    TMP DP  RH WIND       PRES   REMARKS
KANSAS CTY INT PTCLDY    53  35  50 S17       29.77F
6HR MIN TEMP:  50; 6HR MAX TEMP:  58;

KANSAS C DTWN  PTCLDY    56  34  43 S12       29.78F
6HR MIN TEMP:  53; 6HR MAX TEMP:  61;

LEE`S SUMMIT   PTCLDY    53  34  48 S12       29.81F
6HR MIN TEMP:  52; 6HR MAX TEMP:  59;

ST JOSEPH      CLEAR     45  32  60 S8        29.75F
6HR MIN TEMP:  44; 6HR MAX TEMP:  57;

CHILLICOTHE      N/A     46  33  60 S5        29.80F
6HR MIN TEMP:  43; 6HR MAX TEMP:  54;

KIRKSVILLE     CLEAR     38  32  79 S8        29.81F
6HR MIN TEMP:  37; 6HR MAX TEMP:  51;


$$
MOZ066>068-077>081-088>096-101>105-290100-
...SOUTHWEST MISSOURI...

CITY           SKY/WX    TMP DP  RH WIND       PRES   REMARKS
SPRINGFIELD    CLEAR     56  35  45 S17       29.88F
6HR MIN TEMP:  55; 6HR MAX TEMP:  63;

JOPLIN         CLEAR     58  37  45 S14       29.88R
6HR MIN TEMP:  57; 6HR MAX TEMP:  64;


$$
MOZ032>034-039>042-045>050-055>058-069>072-290100-
...CENTRAL MISSOURI...

CITY           SKY/WX    TMP DP  RH WIND       PRES   REMARKS
COLUMBIA       PTCLDY    51  34  52 S13       29.85S
6HR MIN TEMP:  51; 6HR MAX TEMP:  59;

JEFFERSON CITY PTCLDY    51  33  50 SE8       29.87S
6HR MIN TEMP:  51; 6HR MAX TEMP:  61;

ROLLA          PTCLDY    48  33  56 S12       29.88F
6HR MIN TEMP:  48; 6HR MAX TEMP:  55;

SEDALIA        MOCLDY    54  34  46 SW6       29.85R
6HR MIN TEMP:  52; 6HR MAX TEMP:  61;

WHITEMAN AFB   PTCLDY    54  36  50 SW14      29.83R
WARRENSBURG    PTCLDY    52  34  50 S6        29.83S
OSAGE BEACH    PTCLDY    55  34  44 S9        29.87S

$$
MOZ051-052-059>065-290100-
...EAST CENTRAL MISSOURI...

CITY           SKY/WX    TMP DP  RH WIND       PRES   REMARKS
ST LOUIS INTL  MOCLDY    48  33  56 S9        29.94R
6HR MIN TEMP:  46; 6HR MAX TEMP:  52;

SPIRIT OF STL  MOCLDY    49  32  52 S8        29.92R
6HR MIN TEMP:  48; 6HR MAX TEMP:  53;

ST CHARLES     PTCLDY    42  35  76 SE10      29.93R
6HR MIN TEMP:  40; 6HR MAX TEMP:  51;


$$
MOZ072>076-082>087-097>100-106>115-290100-
...SOUTH CENTRAL AND SOUTHEAST MISSOURI...

CITY           SKY/WX    TMP DP  RH WIND       PRES   REMARKS
CAPE GIRARDEAU PTCLDY    45  32  60 S13       30.06F
6HR MIN TEMP:  43; 6HR MAX TEMP:  48;

FARMINGTON     PTCLDY    45  32  61 S14G21    29.98F
6HR MIN TEMP:  43; 6HR MAX TEMP:  48;

POPLAR BLUFF   CLEAR     45  32  60 S12       30.04F
6HR MIN TEMP:  44; 6HR MAX TEMP:  49;

WEST PLAINS    CLEAR     48  32  53 S10       29.99S
6HR MIN TEMP:  48; 6HR MAX TEMP:  55;


$$



USA.gov is the U.S. government's official web portal to all federal, state and local government web resources and services.